Other Public Products
Issued by NWS Charleston, SC

Current Version | Previous Version | Graphics & Text | Print | Product List | Glossary On
Versions: 1 2 3 4 5 6 7 8 9 10 11 12 13 14 15 16 17 18 19 20 21 22 23 24 25 26 27 28 29 30 31 32 33 34 35 36 37 38 39 40 41 42 43 44 45 46 47 48 49 50
398 FPUS82 KCHS 190624 OPUCHS TEST...KCHS/KSAV Gateway Observations...TEST National Weather Service Charleston SC 200 AM EDT TUE SEP 19 2017 NOTE: "fair" indicates few or no clouds below 12,000 feet with no significant weather and/or obstructions to visibility. SCZ050-WAZ558-NCZ071-TXZ119-213-PAZ071-DCZ001-FLZ074-172-MI076- NYZ176-178-MAZ016-IL014-TNZ027-NJZ106-GAZ044-MD014-190700- ...Gateway Observations for Charleston International... CITY SKY/WX TMP DP RH WIND PRES REMARKS Chas Airport PTCLDY 71 71 100 CALM 29.95F 6HR MIN TEMP: 71; 6HR MAX TEMP: 77; Seattle CLOUDY 51 47 86 S14 29.70F 6HR MIN TEMP: 51; 6HR MAX TEMP: 55; 6HR PCP: 0.08; Charlotte MOCLDY 72 67 84 CALM 30.01F 6HR MIN TEMP: 66; 6HR MAX TEMP: 80; Dallas DFW PTCLDY 80 71 74 S12 29.89F 6HR MIN TEMP: 80; 6HR MAX TEMP: 91; Dallas Love PTCLDY 81 71 71 S10 29.91F 6HR MIN TEMP: 81; 6HR MAX TEMP: 92; Philladelphia CLOUDY 72 66 81 NE12 30.03S 6HR MIN TEMP: 71; 6HR MAX TEMP: 73; Wash National PTCLDY 70 67 90 N9 30.02S 6HR MIN TEMP: 70; 6HR MAX TEMP: 73; Baltimore MOCLDY 68 67 96 N6 30.01F 6HR MIN TEMP: 67; 6HR MAX TEMP: 71; Miami PTCLDY 82 76 81 N6 29.90F 6HR MIN TEMP: 82; 6HR MAX TEMP: 88; Detroit CLOUDY 66 59 78 NE6 30.03F 6HR MIN TEMP: 66; 6HR MAX TEMP: 70; Newark CLOUDY 72 67 84 NE12 30.05F 6HR MIN TEMP: 71; 6HR MAX TEMP: 73; Laguardia CLOUDY 71 68 90 NE16 30.05F 6HR MIN TEMP: 71; 6HR MAX TEMP: 72; J F K CLOUDY 71 67 87 NE13 30.05F 6HR MIN TEMP: 71; 6HR MAX TEMP: 72; Boston Logan FOG 63 63 100 NE7 30.15F VSB 1/4 6HR MIN TEMP: 63; 6HR MAX TEMP: 65; 6HR PCP: TRACE; Ft. Lauderdale MOCLDY 82 77 84 N6 29.90F HX 90 Chicago O`Hare CLOUDY 67 61 81 NE8 29.96F 6HR MIN TEMP: 66; 6HR MAX TEMP: 68; Chicago Midway CLOUDY 69 63 81 E7 29.95F 6HR MIN TEMP: 68; 6HR MAX TEMP: 69; Houston Bush MOCLDY 75 73 93 CALM 29.93F 6HR MIN TEMP: 73; 6HR MAX TEMP: 77; 6HR PCP: 0.01; Houston Hobby PTCLDY 78 74 87 SE6 29.92F 6HR MIN TEMP: 75; 6HR MAX TEMP: 78; 6HR PCP: 1.10; Nashville PTCLDY 70 67 90 CALM 30.00S 6HR MIN TEMP: 70; 6HR MAX TEMP: 83; Atlanta CLEAR 71 65 81 NW3 30.00F 6HR MIN TEMP: 71; 6HR MAX TEMP: 80; $$ GAZ044-118-TXZ119-213-NCZ071-DCZ001-MDZ014-506-PAZ021-071-NJZ106- NYZ176-178-MAZ106-OHZ011-021-055-MIZ076-KYZ091-ILZ014-INZ047- MNZ060-ONZ431-190700- ...Gateway Observations for Savannah International... CITY SKY/WX TMP DP RH WIND PRES REMARKS Savannah Arpt PTCLDY 73 70 90 CALM 29.97F 6HR MIN TEMP: 72; 6HR MAX TEMP: 82; Atlanta CLEAR 71 65 81 NW3 30.00F 6HR MIN TEMP: 71; 6HR MAX TEMP: 80; Charlotte MOCLDY 72 67 84 CALM 30.01F 6HR MIN TEMP: 66; 6HR MAX TEMP: 80; Dallas DFW PTCLDY 80 71 74 S12 29.89F 6HR MIN TEMP: 80; 6HR MAX TEMP: 91; Houston Bush MOCLDY 75 73 93 CALM 29.93F 6HR MIN TEMP: 73; 6HR MAX TEMP: 77; 6HR PCP: 0.01; Wash National PTCLDY 70 67 90 N9 30.02S 6HR MIN TEMP: 70; 6HR MAX TEMP: 73; Wash Dulles PTCLDY 67 66 97 N7 30.03F 6HR MIN TEMP: 67; 6HR MAX TEMP: 72; Baltimore MOCLDY 68 67 96 N6 30.01F 6HR MIN TEMP: 67; 6HR MAX TEMP: 71; Philadelphia CLOUDY 72 66 81 NE12 30.03S 6HR MIN TEMP: 71; 6HR MAX TEMP: 73; Newark CLOUDY 72 67 84 NE12 30.05F 6HR MIN TEMP: 71; 6HR MAX TEMP: 73; Laguardia CLOUDY 71 68 90 NE16 30.05F 6HR MIN TEMP: 71; 6HR MAX TEMP: 72; J F K CLOUDY 71 67 87 NE13 30.05F 6HR MIN TEMP: 71; 6HR MAX TEMP: 72; Boston FOG 63 63 100 NE7 30.15F VSB 1/4 6HR MIN TEMP: 63; 6HR MAX TEMP: 65; 6HR PCP: TRACE; Pittsburg CLEAR 67 64 90 CALM 30.04F 6HR MIN TEMP: 65; 6HR MAX TEMP: 78; Akron CLEAR 67 60 78 CALM 30.04F 6HR MIN TEMP: 65; 6HR MAX TEMP: 77; Cleveland MOCLDY 71 64 78 CALM 30.03F 6HR MIN TEMP: 71; 6HR MAX TEMP: 75; Cincinnati CLOUDY 70 66 87 S3 29.99F 6HR MIN TEMP: 70; 6HR MAX TEMP: 76; Columbus CLOUDY 69 66 92 CALM 30.00F Detroit CLOUDY 66 59 78 NE6 30.03F 6HR MIN TEMP: 66; 6HR MAX TEMP: 70; Chicago O`Hare CLOUDY 67 61 81 NE8 29.96F 6HR MIN TEMP: 66; 6HR MAX TEMP: 68; Minneapolis CLOUDY 59 57 93 SE7 29.94F 6HR MIN TEMP: 57; 6HR MAX TEMP: 59; Indianapolis CLOUDY 71 68 90 S5 29.96F 6HR MIN TEMP: 70; 6HR MAX TEMP: 73; 6HR PCP: 0.15; Toronto Canada MOCLDY 68 64 88 N5 30.02F $$

USA.gov is the U.S. government's official web portal to all federal, state and local government web resources and services.